Location: Strawberry
(45.6646°N, 111.9596°W)
Time: 21:51:33
(UTC+00:00)

Explorer 11/Cluster Stage 4 - Pass Details

Date: 07 October 2022
Orbit: 466 x 1248 km, 28.8° (Epoch: 28 November)

Event Time Altitude Azimuth Distance (km) Brightness Sun altitude
Rises 19:56:05 0° 248° (WSW) 4,180 10.7 37.8°
Reaches altitude 10° 19:59:54 10° 234° (SW) 3,193 10.5 37.7°
Maximum altitude 20:05:24 20° 191° (S) 2,421 10.9 37.4°
Drops below altitude 10° 20:10:33 10° 147° (SSE) 2,964 10.1 37.2°
Sets 20:13:56 0° 131° (SE) 3,796 10.3 37.0°
